Location: Newark
(48.5156°N, 1.8989°W)
Time: 13:43:24
(UTC+00:00)

Transit 4A - Pass Details

Date: 01 December 2019
Orbit: 870 x 974 km, 66.8° (Epoch: 14 December)

Event Time Altitude Azimuth Distance (km) Brightness Sun altitude
Rises 20:31:26 0° 239° (WSW) 3,611 11.5 -41.5°
Reaches altitude 10° 20:34:10 10° 247° (WSW) 2,654 10.7 -42.0°
Enters shadow 20:36:20 21° 258° (WSW) 1,959 10.0 -42.3°
